Weather History for Deer Park, WA

Change the Weather History Date:

Monday, October 1, 2012

  Actual Average Record
Temperature  
Mean Temperature 56 °F 50 °F  
Max Temperature 78 °F 66 °F 82 °F (2008)
Min Temperature 33 °F 34 °F 23 °F (1999)
Degree Days  
Heating Degree Days 9 15  
Month to date heating degree days 9 15  
Since 1 July heating degree days 319 434  
Cooling Degree Days 0 0  
Month to date cooling degree days 0 0  
Year to date cooling degree days 232 187  
Growing Degree Days 5 (Base 50)    
Moisture  
Dew Point 34 °F    
Average Humidity 49    
Maximum Humidity 75    
Minimum Humidity 22    
Precipitation  
Precipitation 0.00 in 0.04 in 0.27 in (2005)
Month to date precipitation 0.00 0.04  
Year to date precipitation 17.76 14.48  
Sea Level Pressure  
Sea Level Pressure 30.14 in    
Wind  
Wind Speed 5 mph (South)    
Max Wind Speed 16 mph    
Max Gust Speed 21 mph    
Visibility 10 miles    
Events      
T = Trace of Precipitation, MM = Missing Value Source: NWS Daily Summary

Daily Weather History Graph

Daily Weather History Graph

Search for Another Location

Airport:

Trip Planner

Search our weather history database for the weather conditions in past years. The results will help you decide how hot, cold, wet, or windy it might be!

Date:

Astronomy

Oct. 01, 2012 Rise Set
Actual Time 6:49 AM PDT 6:27 PM PDT
Civil Twilight 6:18 AM PDT 6:58 PM PDT
Nautical Twilight 5:42 AM PDT 7:34 PM PDT
Astronomical Twilight 5:06 AM PDT 8:11 PM PDT
Moon 6:54 PM PDT (10/1) 8:34 AM PDT (10/1)
Length of Visible Light 12h 39m
Length of Day
11h 38m
Full, 97% of the Moon is Illuminated
Oct 1
Full
Oct 8
Last Quarter
Oct 15
New
Oct 21
First Quarter
Oct 29
Full

Hourly Weather History & Observations

Time (PDT) Temp. Windchill Dew Point Humidity Pressure Visibility Wind Dir Wind Speed Gust Speed Precip Events Conditions
12:53 AM 41.0 °F - 28.0 °F 60% 30.29 in 10.0 mi Calm Calm - N/A   Clear
2:53 AM 36.0 °F - 27.0 °F 70% 30.30 in 10.0 mi Calm Calm - N/A   Clear
3:53 AM 37.9 °F - 27.0 °F 65% 30.28 in 10.0 mi Calm Calm - N/A   Clear
5:53 AM 35.1 °F 32.2 °F 27.0 °F 72% 30.29 in 10.0 mi ENE 3.5 mph - N/A   Clear
6:53 AM 33.1 °F 30.0 °F 26.1 °F 75% 30.32 in 10.0 mi NW 3.5 mph - N/A   Clear
7:53 AM 42.1 °F 40.2 °F 30.0 °F 62% 30.32 in 10.0 mi NNW 3.5 mph - N/A   Clear
8:53 AM 52.0 °F - 33.1 °F 49% 30.29 in 10.0 mi Calm Calm - N/A   Clear
9:53 AM 57.9 °F - 35.1 °F 42% 30.28 in 10.0 mi Calm Calm - N/A   Clear
10:53 AM 62.1 °F - 34.0 °F 35% 30.25 in 10.0 mi South 4.6 mph - N/A   Clear
11:53 AM 66.9 °F - 34.0 °F 30% 30.23 in 10.0 mi South 6.9 mph - N/A   Clear
12:53 PM 70.0 °F - 35.1 °F 28% 30.19 in 10.0 mi South 6.9 mph - N/A   Clear
1:53 PM 73.0 °F - 36.0 °F 26% 30.15 in 10.0 mi SE 5.8 mph - N/A   Clear
2:53 PM 75.0 °F - 35.1 °F 23% 30.11 in 10.0 mi SSW 9.2 mph - N/A   Clear
3:53 PM 77.0 °F - 35.1 °F 22% 30.06 in 10.0 mi SSW 13.8 mph 20.7 mph N/A   Clear
4:53 PM 75.0 °F - 36.0 °F 24% 30.03 in 9.0 mi South 8.1 mph 18.4 mph N/A   Clear
5:53 PM 73.0 °F - 37.0 °F 27% 30.01 in 7.0 mi SSW 10.4 mph 17.3 mph N/A   Clear
6:53 PM 66.9 °F - 37.9 °F 34% 30.00 in 10.0 mi SE 5.8 mph - N/A   Clear
7:53 PM 68.0 °F - 37.9 °F 33% 29.98 in 10.0 mi SSW 9.2 mph - N/A   Clear
8:53 PM 64.0 °F - 37.9 °F 38% 29.96 in 10.0 mi SE 5.8 mph - N/A   Clear
9:53 PM 63.0 °F - 37.0 °F 38% 29.94 in 10.0 mi SE 4.6 mph - N/A   Clear
10:53 PM 59.0 °F - 39.0 °F 48% 29.91 in 10.0 mi SSE 10.4 mph - N/A   Clear
11:53 PM 55.9 °F - 42.1 °F 60% 29.88 in 10.0 mi South 10.4 mph - N/A   Clear